[[{"header":{"parameterUnit":"m.s-1","parameterCategory":1,"la1":30.2991,"la2":30.254,"lo1":-89.0895,"lo2":-89.0444,"dy":0.0017,"dx":0.0017,"nx":28,"ny":28,"refTime":"2024-07-27T03:00:00:Z","depth":0,"parameterNumber":2,"parameterNumberName":"U-component_of_WINDS"},"data":[0,0,0,0,0,0,0,0,0,0,0,0,0,0,0,0,0,0,0,0,0,0,0,0,0,0,0,0,0,0,0,0,0,0,0,0,0,0,0,0,0,0,0,0,0,0,0,0,0,0,0,0,0,0,0,0,0,0,-0.3804,-0.3803,0,-0.3785,-0.3785,-0.3784,-0.38,-0.3801,-0.3801,-0.3802,-0.3779,-0.3778,-0.3777,0,0,0,0,0,0,0,0,0,0,0,0,0,-0.385,-0.3849,-0.3804,-0.3803,-0.3803,-0.3785,-0.3785,-0.3784,-0.38,-0.3801,-0.3802,-0.3802,-0.378,-0.3778,-0.3777,0,0,0,0,0,0,0,0,0,0,0,0,0,-0.383,-0.3849,-0.3804,-0.3809,-0.3809,-0.3785,-0.3785,-0.3784,-0.38,-0.3801,-0.3802,-0.3803,-0.378,-0.3778,-0.3776,-0.3745,0,0,-0.3771,-0.377,0,0,0,0,0,0,0,0,-0.3831,-0.3828,-0.3808,-0.3808,-0.3809,-0.3796,-0.3793,-0.3771,-0.3799,-0.3803,-0.3802,-0.3803,-0.3784,-0.3782,-0.3776,-0.3744,-0.3743,-0.3771,-0.377,-0.3769,-0.3768,0,0,0,0,0,0,0,-0.3833,-0.3829,-0.3796,-0.3808,-0.3808,-0.3811,-0.3809,-0.3789,-0.3788,-0.3803,-0.3804,-0.3802,-0.3784,-0.3778,-0.3775,-0.3743,-0.3771,-0.3769,-0.3768,-0.3767,-0.3685,-0.3684,0,0,0,0,0,0,-0.3834,-0.383,-0.3797,-0.3796,-0.3823,-0.3809,-0.3808,-0.3799,-0.3788,-0.3788,-0.3801,-0.3803,-0.378,-0.3778,-0.3775,-0.3738,-0.3769,-0.3767,-0.3766,-0.3686,-0.3685,-0.3683,0,0,0,0,0,0,-0.3835,-0.3831,-0.3797,-0.3813,-0.3809,-0.3808,-0.3798,-0.3798,-0.3792,-0.3787,-0.3786,-0.3795,-0.3781,-0.3777,-0.3753,-0.3737,-0.3766,-0.3765,-0.3687,-0.3685,-0.3684,-0.3663,0,0,0,0,0,0,-0.3836,-0.3831,-0.382,-0.3813,-0.3808,-0.3777,-0.3797,-0.3797,-0.3789,-0.3791,-0.3781,-0.378,-0.3781,-0.3755,-0.3751,-0.3735,-0.3763,-0.3689,-0.3686,-0.3684,-0.3665,-0.3661,-0.3657,0,0,0,0,0,-0.3838,-0.3814,-0.3819,-0.3815,-0.3795,-0.3776,-0.3773,-0.3776,-0.3788,-0.3776,-0.3773,-0.378,-0.374,-0.3753,-0.3748,-0.3731,-0.369,-0.3687,-0.3685,-0.3667,-0.3662,-0.3657,0,0,0,0,0,0,-0.3817,-0.3813,-0.3819,-0.3792,-0.3784,-0.3779,-0.3764,-0.377,-0.3758,-0.376,-0.3764,-0.3761,-0.3735,-0.3731,-0.3746,-0.37,-0.3716,-0.3713,-0.3704,-0.3699,-0.3696,-0.3697,-0.3762,0,0,0,0,0,-0.381,-0.3796,-0.3793,-0.377,-0.3766,-0.3765,-0.3757,-0.376,-0.3752,-0.3748,-0.3743,-0.3734,-0.3719,-0.3709,-0.3695,-0.3665,-0.3662,-0.3651,-0.3647,-0.3644,-0.364,-0.3624,-0.3619,-0.3675,-0.3675,-0.3675,0,0,-0.3794,-0.379,-0.3781,-0.3765,-0.376,-0.3745,-0.3762,-0.3745,-0.3734,-0.3745,-0.3722,-0.3718,-0.3708,-0.3681,-0.3668,-0.3676,-0.3624,-0.364,-0.3638,-0.3636,-0.3621,-0.3615,-0.3611,-0.3674,-0.3674,-0.3674,0,0,-0.3758,-0.3754,-0.3734,-0.3728,-0.372,-0.372,-0.3716,-0.3709,-0.3707,-0.3684,-0.3693,-0.3678,-0.3653,-0.3645,-0.3638,-0.3599,-0.3605,-0.3594,-0.3574,-0.3558,-0.3553,-0.3549,-0.3535,-0.353,-0.3591,-0.3591,-0.3591,0,-0.3739,-0.3718,-0.3723,-0.3706,-0.3698,-0.3709,-0.3689,-0.3683,-0.367,-0.3664,-0.3673,-0.3642,-0.3635,-0.3606,-0.3597,-0.3591,-0.3585,-0.3595,-0.3554,-0.355,-0.3546,-0.3533,-0.3527,-0.359,-0.359,-0.359,-0.359,0,-0.3695,-0.368,-0.3665,-0.3654,-0.3645,-0.3626,-0.3627,-0.3617,-0.3621,-0.362,-0.3597,-0.359,-0.3575,-0.3568,-0.3571,-0.3539,-0.3544,-0.3553,-0.3569,-0.3539,-0.3527,-0.3522,-0.3588,-0.3588,-0.3589,-0.3589,0,0,-0.3644,-0.3637,-0.3632,-0.3627,-0.3619,-0.3607,-0.3588,-0.3575,-0.3566,-0.3557,-0.3541,-0.3519,-0.3528,-0.3519,-0.3522,-0.3508,-0.3478,-0.3519,-0.3518,-0.3511,-0.3442,-0.3435,-0.3429,-0.3482,-0.3481,-0.348,-0.3443,0,-0.3608,-0.3577,-0.3582,-0.3552,-0.3538,-0.3548,-0.3532,-0.3525,-0.3524,-0.3511,-0.3508,-0.3493,-0.3506,-0.3501,-0.3487,-0.3484,-0.3464,-0.3487,-0.3466,-0.3465,-0.3469,-0.3422,-0.3415,-0.338,-0.3438,-0.3437,-0.3436,0,-0.3561,-0.3552,-0.3521,-0.3515,-0.351,-0.3495,-0.3483,-0.3471,-0.3463,-0.3463,-0.3454,-0.3459,-0.344,-0.3456,-0.3429,-0.3445,-0.3437,-0.3434,-0.3432,-0.343,-0.3449,-0.3419,-0.3369,-0.3363,-0.3429,-0.3429,-0.343,0,-0.3527,-0.3507,-0.3486,-0.3481,-0.3475,-0.3464,-0.3461,-0.3454,-0.3445,-0.3435,-0.3429,-0.3416,-0.3408,-0.3397,-0.3398,-0.341,-0.337,-0.3387,-0.3369,-0.3369,-0.3359,-0.336,-0.3307,-0.3355,-0.3355,-0.3355,-0.3355,0,-0.3486,-0.3467,-0.3471,-0.3458,-0.3436,-0.3441,-0.3419,-0.3417,-0.3411,-0.3397,-0.3404,-0.3391,-0.3393,-0.3379,-0.3379,-0.3357,-0.3353,-0.3352,-0.3352,-0.3351,-0.3351,-0.3345,-0.3348,-0.3353,-0.3354,-0.3354,-0.3354,0,-0.3445,-0.3447,-0.3425,-0.3421,-0.3419,-0.3403,-0.3399,-0.3387,-0.3386,-0.3368,-0.3364,-0.3363,-0.3347,-0.3347,-0.3328,-0.3328,-0.3301,-0.3304,-0.3304,-0.3304,-0.3286,-0.3288,-0.3227,-0.3219,-0.3272,-0.3272,-0.3271,0,-0.3418,-0.3404,-0.3398,-0.339,-0.3387,-0.3373,-0.3365,-0.3369,-0.336,-0.335,-0.3339,-0.3324,-0.3312,-0.3286,-0.3282,-0.3268,-0.3271,-0.3251,-0.3268,-0.3268,-0.327,-0.3271,-0.3269,-0.3247,-0.3246,-0.3246,-0.3245,0,-0.3371,-0.3373,-0.3362,-0.3351,-0.3342,-0.3333,-0.3325,-0.3317,-0.3321,-0.331,-0.3295,-0.3286,-0.3267,-0.3252,-0.3238,-0.3233,-0.3239,-0.324,-0.3235,-0.3233,-0.3234,-0.3233,-0.3294,-0.3241,-0.3242,-0.3242,-0.3242,-0.3242,-0.3336,-0.3324,-0.3318,-0.3306,-0.33,-0.3293,-0.3281,-0.328,-0.3267,-0.3254,-0.3257,-0.3239,-0.3231,-0.3214,-0.3207,-0.3193,-0.32,-0.3193,-0.3191,-0.3189,-0.3187,-0.3237,-0.319,-0.3191,-0.3191,-0.3191,-0.3191,0,-0.3289,-0.3286,-0.3274,-0.3264,-0.3254,-0.3262,-0.3254,-0.3244,-0.3229,-0.3222,-0.3211,-0.3193,-0.3178,-0.3174,-0.316,-0.3149,-0.3151,-0.3145,-0.3146,-0.3144,-0.3182,-0.3187,-0.3143,-0.3143,-0.3143,-0.3143,-0.3143,-0.3143,-0.3263,-0.3243,-0.3244,-0.3221,-0.3219,-0.3203,-0.3197,-0.319,-0.3184,-0.3165,-0.3153,-0.3151,-0.3145,-0.313,-0.3117,-0.3116,-0.311,-0.3102,-0.3102,-0.3137,-0.3142,-0.3146,-0.3152,-0.3101,-0.3101,-0.3066,-0.3066,-0.3065]},{"header":{"parameterUnit":"m.s-1","parameterCategory":1,"la1":30.2991,"la2":30.254,"lo1":-89.0895,"lo2":-89.0444,"dy":0.0017,"dx":0.0017,"nx":28,"ny":28,"refTime":"2024-07-27T03:00:00:Z","depth":0,"parameterNumber":3,"parameterNumberName":"V-component_of_WINDS"},"data":[0,0,0,0,0,0,0,0,0,0,0,0,0,0,0,0,0,0,0,0,0,0,0,0,0,0,0,0,0,0,0,0,0,0,0,0,0,0,0,0,0,0,0,0,0,0,0,0,0,0,0,0,0,0,0,0,0,0,3.202,3.2021,0,3.213,3.2131,3.2132,3.2103,3.2101,3.2099,3.2097,3.2207,3.2212,3.2216,0,0,0,0,0,0,0,0,0,0,0,0,0,3.1781,3.1786,3.202,3.2021,3.2023,3.213,3.2131,3.2133,3.2104,3.2101,3.2098,3.2096,3.2205,3.2211,3.2217,0,0,0,0,0,0,0,0,0,0,0,0,0,3.1887,3.1787,3.2019,3.2021,3.2022,3.2129,3.2131,3.2133,3.2104,3.2101,3.2098,3.2095,3.2203,3.221,3.2218,3.2329,0,0,3.224,3.2244,0,0,0,0,0,0,0,0,3.1881,3.1896,3.2019,3.2021,3.2023,3.21,3.2087,3.2199,3.2105,3.2073,3.2097,3.2093,3.2174,3.2183,3.2211,3.2334,3.2339,3.2241,3.2246,3.2249,3.2251,0,0,0,0,0,0,0,3.1874,3.1891,3.2063,3.2021,3.2023,3.2015,3.2027,3.2108,3.214,3.2076,3.2074,3.2087,3.2174,3.2204,3.2213,3.2341,3.2241,3.2247,3.2252,3.2255,3.2559,3.2563,0,0,0,0,0,0,3.1866,3.1885,3.206,3.2066,3.1943,3.2022,3.2035,3.2078,3.2139,3.2146,3.209,3.2086,3.2193,3.2205,3.2217,3.2351,3.2249,3.2256,3.226,3.2556,3.256,3.2564,0,0,0,0,0,0,3.1861,3.1882,3.2055,3.1976,3.1997,3.203,3.2079,3.2082,3.2112,3.215,3.2155,3.2115,3.2191,3.2207,3.2301,3.2354,3.2259,3.2266,3.2552,3.2557,3.2562,3.2619,0,0,0,0,0,0,3.1854,3.188,3.1924,3.1977,3.2001,3.2139,3.2082,3.2087,3.2125,3.2121,3.2175,3.2181,3.2189,3.229,3.2309,3.2362,3.2272,3.2547,3.2554,3.256,3.2613,3.2626,3.2637,0,0,0,0,0,3.1846,3.1935,3.1926,3.1947,3.2057,3.2142,3.2156,3.2165,3.213,3.2173,3.2197,3.2179,3.2346,3.23,3.2321,3.2378,3.2544,3.2552,3.256,3.2607,3.2623,3.2637,0,0,0,0,0,0,3.1886,3.1942,3.1933,3.2042,3.2088,3.2137,3.2192,3.2182,3.2237,3.223,3.2238,3.225,3.2347,3.2372,3.2321,3.2488,3.2439,3.2452,3.2468,3.2484,3.2496,3.2487,3.2278,0,0,0,0,0,3.1908,3.1974,3.2018,3.211,3.2134,3.2159,3.2197,3.2199,3.2247,3.2266,3.2297,3.2343,3.2405,3.2446,3.2505,3.2616,3.2627,3.2665,3.2677,3.2687,3.2698,3.2757,3.2774,3.2591,3.2591,3.2591,0,0,3.1953,3.1992,3.2033,3.2119,3.2155,3.2222,3.2175,3.2248,3.2298,3.2276,3.2368,3.2392,3.2444,3.2547,3.2594,3.257,3.2751,3.2698,3.2705,3.271,3.2767,3.2784,3.28,3.2596,3.2595,3.2595,0,0,3.2069,3.2106,3.2186,3.2223,3.2278,3.2294,3.2313,3.2365,3.2381,3.2473,3.2458,3.2516,3.2624,3.2661,3.2694,3.2824,3.2809,3.2843,3.2906,3.2964,3.2978,3.2991,3.3037,3.3053,3.2853,3.2854,3.2854,0,3.2118,3.222,3.2228,3.2303,3.234,3.2325,3.2406,3.2441,3.2512,3.2538,3.2511,3.2646,3.2679,3.279,3.2822,3.285,3.2871,3.2836,3.2976,3.2989,3.3001,3.3044,3.3061,3.2857,3.2857,3.2856,3.2856,0,3.2276,3.2347,3.2404,3.2475,3.2519,3.2596,3.2615,3.2659,3.2658,3.2677,3.277,3.281,3.2877,3.2904,3.2903,3.3015,3.2998,3.2974,3.2925,3.3022,3.3063,3.3079,3.2863,3.2861,3.286,3.2859,0,0,3.2421,3.2495,3.2516,3.2547,3.2606,3.266,3.2736,3.2803,3.2839,3.2889,3.2952,3.3043,3.3021,3.3058,3.3062,3.3113,3.3212,3.3082,3.3083,3.3104,3.3336,3.3353,3.3372,3.3203,3.3206,3.3208,3.3331,0,3.2541,3.2676,3.2686,3.2806,3.287,3.2857,3.2923,3.2966,3.2985,3.3042,3.3063,3.3127,3.3093,3.3116,3.3166,3.3189,3.3258,3.3181,3.326,3.3263,3.3247,3.3394,3.3413,3.3527,3.3347,3.335,3.3352,0,3.27,3.2755,3.2883,3.2932,3.296,3.3019,3.308,3.3135,3.3183,3.3193,3.3235,3.3231,3.3308,3.3257,3.3362,3.3309,3.3342,3.3359,3.3363,3.337,3.3312,3.3404,3.3563,3.358,3.3377,3.3375,3.3374,0,3.2791,3.2897,3.2987,3.3014,3.3075,3.3116,3.3144,3.3189,3.3228,3.3281,3.3306,3.3367,3.3401,3.3448,3.346,3.3422,3.3565,3.3515,3.3574,3.3574,3.3604,3.3602,3.377,3.3627,3.3627,3.3627,3.3626,0,3.2924,3.3002,3.3028,3.3083,3.317,3.318,3.3266,3.329,3.333,3.3389,3.3381,3.3436,3.345,3.3507,3.3517,3.3602,3.3617,3.3627,3.3629,3.3627,3.3626,3.3648,3.364,3.3631,3.363,3.3629,3.3629,0,3.304,3.3061,3.3158,3.3207,3.3222,3.3283,3.3325,3.3378,3.3396,3.347,3.3488,3.3517,3.3584,3.3602,3.3682,3.3688,3.3788,3.3783,3.3772,3.3772,3.383,3.3823,3.4017,3.4043,3.3884,3.3886,3.3887,0,3.3123,3.3183,3.3239,3.3278,3.3307,3.3371,3.341,3.3423,3.3464,3.3524,3.3569,3.3635,3.3689,3.3796,3.3824,3.3885,3.388,3.3944,3.3889,3.3885,3.388,3.3875,3.3881,3.3954,3.3955,3.3957,3.3958,0,3.3268,3.3275,3.3333,3.3396,3.3444,3.3493,3.354,3.3572,3.3591,3.3638,3.3707,3.3749,3.3831,3.3896,3.3958,3.3984,3.3974,3.3975,3.3992,3.399,3.3981,3.3986,3.3799,3.397,3.3969,3.3968,3.3967,3.3967,3.3369,3.3421,3.3469,3.3534,3.3571,3.3615,3.3667,3.3692,3.375,3.3818,3.3821,3.3896,3.3942,3.4024,3.4054,3.4112,3.4092,3.4117,3.4123,3.4129,3.4133,3.3973,3.4123,3.4123,3.4122,3.4122,3.4122,0,3.3512,3.3542,3.3602,3.3669,3.372,3.3707,3.3758,3.3801,3.3867,3.3911,3.3964,3.4043,3.4107,3.4139,3.4202,3.4242,3.4239,3.4258,3.4255,3.4261,3.4147,3.4126,3.426,3.426,3.426,3.426,3.426,3.426,3.3592,3.368,3.3693,3.3798,3.3827,3.3901,3.3931,3.3972,3.4007,3.4096,3.4149,3.417,3.4209,3.4275,3.4332,3.434,3.4363,3.4385,3.439,3.4283,3.4269,3.4255,3.4236,3.439,3.439,3.4498,3.4499,3.45]}]]